This demonstration page uses our WeatherBlox Daily Observations layout. Learn more.

Left ArrowRight Arrow

41.86663, -103.66717

Hourly Observations for January 30, 2016

Temp ( °F °C ) Dew Point ( °F °C ) Humidity (%) Winds ( mph kmh ) Pressure ( in mb ) Visibility ( mi km ) Precip ( " mm )
12:53 am 00:53 Mostly Cloudy 36 2.2 28 -2.2 73 73 N N/A 29.60 1002 10 16 N/A
1:53 am 01:53 Partly Cloudy 36 2.2 28 -2.2 73 73 ESE 5 7 29.56 1001 10 16 N/A
2:53 am 02:53 Mostly Clear 37 2.8 29 -1.7 73 73 ESE 7 11 29.52 1000 10 16 N/A
3:53 am 03:53 Clear 37 2.8 28 -2.2 70 70 ENE 7 11 29.51 999 10 16 N/A
4:53 am 04:53 Clear 37 2.8 28 -2.2 70 70 NE 7 11 29.52 1000 10 16 N/A
5:53 am 05:53 Partly Cloudy 37 2.8 28 -2.2 70 70 E 7 11 29.52 1000 10 16 N/A
6:53 am 06:53 Mostly Cloudy 38 3.3 28 -2.2 68 68 ENE 7 11 29.54 1000 10 16 N/A
7:53 am 07:53 Sunny 36 2.2 28 -2.2 73 73 N N/A 29.54 1001 10 16 N/A
8:53 am 08:53 Cloudy 39 3.9 29 -1.7 67 67 NNE 6 9 29.55 1001 10 16 N/A
9:53 am 09:53 Cloudy 43 6.1 35 1.7 74 74 NNW 18 30 29.59 1002 10 16 N/A
10:53 am 10:53 Partly Cloudy 40 4.4 30 -1.1 68 68 NNW 18 30 29.60 1002 10 16 N/A
11:53 am 11:53 Cloudy 38 3.3 28 -2.2 68 68 NNW 20 31 29.63 1003 10 16 N/A
12:53 pm 12:53 Cloudy 38 3.3 27 -2.8 65 65 NNW 15 24 29.63 1003 10 16 N/A
1:53 pm 13:53 Cloudy 39 3.9 26 -3.3 60 60 NW 8 13 29.62 1003 10 16 N/A
2:53 pm 14:53 Cloudy 39 3.9 25 -3.9 57 57 NNW 13 20 29.63 1003 10 16 N/A
3:53 pm 15:53 Cloudy 39 3.9 23 -5 53 53 NNW 16 26 29.64 1004 10 16 N/A
4:53 pm 16:53 Cloudy 36 2.2 24 -4.4 62 62 NW 9 15 29.67 1005 10 16 N/A
5:53 pm 17:53 Mostly Cloudy 34 1.1 28 -2.2 79 79 WNW 10 17 29.69 1005 10 16 N/A
6:53 pm 18:53 Mostly Cloudy 34 1.1 29 -1.7 82 82 W 8 13 29.73 1007 10 16 N/A
7:53 pm 19:53 Cloudy 33 0.6 29 -1.7 85 85 W 6 9 29.75 1007 10 16 N/A
8:53 pm 20:53 Cloudy 33 0.6 29 -1.7 85 85 W 6 9 29.75 1008 10 16 N/A
9:53 pm 21:53 Cloudy 32 undefined 28 -2.2 85 85 WNW 6 9 29.75 1008 10 16 N/A
10:53 pm 22:53 Cloudy 31 -0.6 28 -2.2 89 89 WSW 3 6 29.78 1008 10 16 N/A
11:53 pm 23:53 Cloudy 31 -0.6 28 -2.2 89 89 WNW 5 7 29.77 1008 10 16 N/A

Powered by AerisWeather